Terminal Aerodrome Forecast
Issued by NWS

Home | Current Version | Previous Version | Text Only | Print | Product List | Glossary On
Versions: 1 2 3 4 5 6 7 8 9 10 11 12 13 14 15 16 17 18 19 20 21 22 23 24 25 26 27 28 29 30 31 32 33 34
000
FTPA31 PHFO 200800 AAA
TAFMDY
TAF AMD
PMDY 200803Z 2008/2106 34015G25KT 5SM -RA BR SCT030 OVC035
      TEMPO 2008/2012 2SM SHRA BKN025
     FM201200 35012G22KT 6SM RA BKN025
     FM210400 36012G22KT P6SM SCT015 BKN035
      AMD LTD TO CLD AND WIND=

USA.gov is the U.S. government's official web portal to all federal, state and local government web resources and services.